EZY63DK EGKK-EDDH

Flight info

Callsign EZY63DK
Flight time N/A
Altitude 37000
Route FRANE1Z FRANE M604 PAAVO Q295 SOMVA DCT MAVAS DCT TULIP Y12 SPY N873 ANDIK M105 RIBSO RIBSO3P
Aircraft A320/M-SDE3FGHIRWY/LB1

Departure

Time N/A
Airport London Gatwick Airport (EGKK)

Arrival

Time 2026-04-24 14:40
Airport Hamburg Helmut Schmidt Airport (EDDH)
Time Latitude Longitude Altitude Speed Heading
2026-04-24 14:20 53.74160 9.16761 13019 ft 330 kts 49°
2026-04-24 14:20 53.75483 9.19880 12500 ft 320 kts 50°
2026-04-24 14:20 53.76746 9.22917 12254 ft 313 kts 50°
2026-04-24 14:21 53.77561 9.24905 12073 ft 308 kts 51°
2026-04-24 14:21 53.79165 9.28838 11754 ft 299 kts 51°
2026-04-24 14:21 53.80320 9.31672 11458 ft 295 kts 51°
2026-04-24 14:21 53.81276 9.34749 11106 ft 299 kts 65°
2026-04-24 14:22 53.81781 9.38158 10975 ft 300 kts 73°
2026-04-24 14:22 53.82195 9.41620 10819 ft 300 kts 73°
2026-04-24 14:22 53.83033 9.48515 10492 ft 298 kts 73°
2026-04-24 14:23 53.83451 9.51949 10329 ft 298 kts 73°
2026-04-24 14:23 53.83867 9.55377 10168 ft 296 kts 73°
2026-04-24 14:23 53.84280 9.58788 10005 ft 296 kts 73°
2026-04-24 14:23 53.84690 9.62197 9827 ft 295 kts 73°
2026-04-24 14:24 53.85096 9.65597 9670 ft 294 kts 73°
2026-04-24 14:24 53.85363 9.67849 9561 ft 294 kts 73°
2026-04-24 14:24 53.85763 9.71230 9390 ft 291 kts 73°
2026-04-24 14:24 53.86271 9.75560 9218 ft 275 kts 73°
2026-04-24 14:25 53.86518 9.77674 9163 ft 266 kts 73°
2026-04-24 14:25 53.86617 9.81782 9175 ft 267 kts 91°
2026-04-24 14:25 53.86397 9.84897 9176 ft 266 kts 91°
2026-04-24 14:25 53.86176 9.88017 9181 ft 266 kts 91°
2026-04-24 14:26 53.86029 9.90077 9176 ft 267 kts 91°
2026-04-24 14:26 53.85808 9.93197 9175 ft 267 kts 91°
2026-04-24 14:26 53.85587 9.96310 9176 ft 267 kts 91°
2026-04-24 14:26 53.85365 9.99430 9178 ft 267 kts 91°
2026-04-24 14:27 53.85144 10.02552 9177 ft 267 kts 91°
2026-04-24 14:27 53.84920 10.05672 9176 ft 267 kts 91°
2026-04-24 14:27 53.84693 10.08788 9180 ft 267 kts 91°
2026-04-24 14:27 53.84467 10.11902 9175 ft 267 kts 91°
2026-04-24 14:28 53.84256 10.15022 9168 ft 265 kts 87°
2026-04-24 14:28 53.84392 10.18072 9173 ft 257 kts 71°
2026-04-24 14:28 53.84977 10.20882 9167 ft 250 kts 56°
2026-04-24 14:28 53.85930 10.23292 9166 ft 244 kts 43°
2026-04-24 14:29 53.87025 10.25490 9152 ft 244 kts 44°
2026-04-24 14:29 53.88116 10.27694 9144 ft 244 kts 44°
2026-04-24 14:29 53.89188 10.29872 9080 ft 243 kts 44°
2026-04-24 14:29 53.90241 10.32029 8942 ft 232 kts 44°
2026-04-24 14:30 53.91255 10.34111 8820 ft 227 kts 44°
2026-04-24 14:30 53.92258 10.36159 8673 ft 225 kts 44°
2026-04-24 14:30 53.93257 10.38197 8560 ft 224 kts 44°
2026-04-24 14:30 53.94249 10.40218 8443 ft 220 kts 43°
2026-04-24 14:31 53.95203 10.42182 8307 ft 212 kts 46°
2026-04-24 14:31 53.95763 10.44491 8173 ft 219 kts 81°
2026-04-24 14:31 53.95359 10.47004 8051 ft 231 kts 122°
2026-04-24 14:31 53.94191 10.48900 7940 ft 235 kts 138°
2026-04-24 14:32 53.92923 10.50652 7823 ft 235 kts 138°
2026-04-24 14:32 53.91573 10.52207 7676 ft 235 kts 162°
2026-04-24 14:32 53.89990 10.52345 7554 ft 228 kts 202°
2026-04-24 14:32 53.88703 10.50984 7435 ft 214 kts 237°
2026-04-24 14:33 53.87752 10.49041 7323 ft 216 kts 233°
2026-04-24 14:33 53.86722 10.47180 7202 ft 216 kts 235°
2026-04-24 14:33 53.85744 10.45261 7080 ft 215 kts 237°
2026-04-24 14:33 53.84806 10.43338 6928 ft 215 kts 238°
2026-04-24 14:34 53.83832 10.41323 6421 ft 227 kts 237°
2026-04-24 14:34 53.82829 10.39259 6037 ft 228 kts 237°
2026-04-24 14:34 53.81815 10.37171 5707 ft 236 kts 236°
2026-04-24 14:34 53.80752 10.34982 5382 ft 243 kts 235°
2026-04-24 14:35 53.79677 10.32777 5061 ft 243 kts 235°
2026-04-24 14:35 53.78607 10.30581 4734 ft 241 kts 235°
2026-04-24 14:35 53.77540 10.28393 4429 ft 240 kts 235°
2026-04-24 14:35 53.76483 10.26226 4109 ft 238 kts 234°
2026-04-24 14:36 53.75434 10.24078 3794 ft 236 kts 234°
2026-04-24 14:36 53.74397 10.21957 3473 ft 230 kts 235°
2026-04-24 14:36 53.73401 10.19924 3178 ft 220 kts 234°
2026-04-24 14:36 53.72449 10.17980 2886 ft 210 kts 234°
2026-04-24 14:37 53.71540 10.16124 2612 ft 201 kts 235°
2026-04-24 14:37 53.70669 10.14348 2340 ft 192 kts 236°
2026-04-24 14:37 53.69836 10.12650 2084 ft 183 kts 236°
2026-04-24 14:37 53.69060 10.11072 1873 ft 165 kts 235°
2026-04-24 14:38 53.68362 10.09651 1621 ft 153 kts 236°
2026-04-24 14:38 53.67696 10.08296 1415 ft 143 kts 236°
2026-04-24 14:38 53.67100 10.07085 1238 ft 131 kts 238°
2026-04-24 14:38 53.66534 10.05932 1052 ft 126 kts 238°
2026-04-24 14:39 53.65978 10.04801 863 ft 125 kts 237°
2026-04-24 14:39 53.65426 10.03677 689 ft 123 kts 237°
2026-04-24 14:39 53.64879 10.02565 485 ft 123 kts 239°
2026-04-24 14:39 53.64330 10.01449 317 ft 126 kts 237°
2026-04-24 14:40 53.63771 10.00321 155 ft 124 kts 237°
2026-04-24 14:40 53.63233 9.99231 62 ft 111 kts 238°
2026-04-24 14:40 53.62816 9.98371 48 ft 72 kts 230°
2026-04-24 14:40 53.62595 9.97922 46 ft 37 kts 230°
2026-04-24 14:41 53.62464 9.97798 43 ft 19 kts 153°
2026-04-24 14:41 53.62433 9.97947 44 ft 2 kts 79°
2026-04-24 14:41 53.62433 9.97949 44 ft 0 kts 79°
2026-04-24 14:42 53.62438 9.97991 43 ft 7 kts 79°
2026-04-24 14:42 53.62446 9.98068 45 ft 6 kts 79°
2026-04-24 14:42 53.62454 9.98139 45 ft 6 kts 80°
2026-04-24 14:42 53.62461 9.98199 45 ft 5 kts 79°
2026-04-24 14:43 53.62467 9.98251 42 ft 5 kts 78°
2026-04-24 14:43 53.62475 9.98321 45 ft 9 kts 78°
2026-04-24 14:43 53.62489 9.98438 45 ft 12 kts 79°
2026-04-24 14:43 53.62505 9.98588 46 ft 14 kts 78°
2026-04-24 14:44 53.62526 9.98768 44 ft 17 kts 79°
2026-04-24 14:44 53.62550 9.98978 46 ft 20 kts 76°
2026-04-24 14:44 53.62578 9.99220 45 ft 22 kts 78°
2026-04-24 14:44 53.62607 9.99493 44 ft 26 kts 75°
2026-04-24 14:45 53.62633 9.99709 44 ft 13 kts 79°
2026-04-24 14:45 53.62637 9.99740 43 ft 0 kts 78°
2026-04-24 14:47 53.62639 9.99753 42 ft 5 kts 78°
2026-04-24 14:47 53.62679 9.99845 45 ft 15 kts 33°
2026-04-24 14:47 53.62793 9.99951 46 ft 21 kts 27°
2026-04-24 14:47 53.62921 10.00064 44 ft 20 kts 26°
2026-04-24 14:48 53.63039 10.00189 46 ft 21 kts 32°
2026-04-24 14:48 53.63156 10.00221 48 ft 17 kts 354°
2026-04-24 14:48 53.63268 10.00208 50 ft 14 kts 357°
2026-04-24 14:48 53.63296 10.00205 50 ft 4 kts 356°
2026-04-24 14:49 53.63347 10.00204 51 ft 2 kts 11°
2026-04-24 14:49 53.63364 10.00226 51 ft 6 kts 50°
2026-04-24 14:49 53.63371 10.00288 51 ft 8 kts 84°
2026-04-24 14:49 53.63374 10.00353 51 ft 0 kts 84°
2026-04-24 14:50 53.63375 10.00363 51 ft 0 kts 84°
2026-04-24 14:53 53.63375 10.00364 51 ft 0 kts 84°